Location: Newark
(20.5800°N, 87.1197°W)
Time: 05:06:54
(UTC+00:00)

N. Korean satellite - Pass Details

Date: 28 July 2019
Orbit: 457 x 507 km, 97.2° (Epoch: 20 August)

Event Time Altitude Azimuth Distance (km) Brightness Sun altitude
Rises 10:40:21 0° 41° (NE) 2,604 11.6 -9.7°
Reaches altitude 10° 10:43:40 10° 74° (ENE) 1,714 11.0 -9.0°
Maximum altitude 10:45:04 12° 96° (E) 1,597 10.2 -8.7°
Drops below altitude 10° 10:46:29 10° 119° (ESE) 1,707 9.9 -8.4°
Sets 10:49:46 0° 152° (SSE) 2,579 10.3 -7.7°
